星链-35293(STARLINK-35293)

导读

STARLINK-35293是美国SpaceX星链星座的卫星,于2025年10月16日发射入轨,属于星链网络的扩容卫星。它继承了星链卫星的设计,配备激光 inter-satellite链路,可降低对地面站依赖,为全球提供高速低延迟互联网服务,尤其服务偏远地区与移动网络场景,补充了星座的覆盖容量与服务稳定性。

基本信息
目录编号:
66012
目录名称:
STARLINK-35293
国际标识:
2025-232H
轨道中心:
EARTH
卫星名称:
星链-35293
卫星全名:
星链-35293(STARLINK-35293)
卫星状态:
在轨 (已飞行323 天)
发射日期:
2025-10-16 UTC
国别 :
美国 (US)
星等 :
--
轨道信息
数据来源 国际轨道数据
星历时间: 2026-09-04T03:38:49+0800
10小时前
查看轨道信息
半长轴: 6840.833km
偏心率: 0.0001157
轨道倾角: 53.162°
近地点辐角 69.746°
升交点赤经 355.406°
平近点角 290.366°
近地点: 461.904km
远地点: 463.488km
周期: 93.848分钟
每日圈数: 15.344026
详细信息
固有亮度:
5
最大亮度:
2.5
卫星平台:
Starlink V1.0
覆盖范围:
全球
运营商:
太空探索技术公司
运营商所在国:
美国
制造商(研发单位):
太空探索技术公司
制造商所在国:
美国
使用方式:
暂无
卫星简介
Starlink 计划是 SpaceX 推出的全球卫星互联网项目,通过发射低轨道卫星,为全球尤其是偏远地区提供高速、低延迟的互联网服务。自 2019 年起,Starlink 已部署数千颗卫星,旨在缩小全球数字鸿沟,推动互联网普及。该项目还为军事、航空等行业提供通信支持,带来广泛经济效益。
2D轨道图
3D轨道图
轨道高度分析图
轨道倾角分析图
轨道综合分析图
查看轨道综合分析图
交会数据列表
事件ID 空间交会对象 最接近时刻(TCA) 交会距离 交会风险概率(CRP) 交会风险指数(CRI) 操作
CDM_260905-015005-927006-601221
2026-09-05T
01:50:41+0000
0.654 km
远距离
6.674585E-5 中风险 0.71
CDM_260905-035805-287806-601221
2026-09-05T
03:58:29+0000
0.747 km
远距离
4.377951E-5 中风险 0.68
CDM_260901-171704-940006-601222
HIBARI (49400)
2026-09-01T
17:17:41+0000
1.863 km
极远距离
2.707595E-6 低风险 0.44
CDM_260905-053205-287806-601221
2026-09-05T
05:32:17+0000
2.113 km
极远距离
1.62433E-6 低风险 0.39
CDM_260904-235105-703806-601222
2026-09-04T
23:51:18+0000
2.082 km
极远距离
1.476676E-6 低风险 0.38
CDM_260905-001605-927006-601221
2026-09-05T
00:16:54+0000
2.713 km
极远距离
1.039117E-6 低风险 0.35